sat.trackr.live / text

‹ back to catalog

TIANYI A

NORAD 64048 · 2025-103A

PAYLOAD ACTIVE UNKNOWN

§ Identity

Operator
Country
PRC
Launch date
2025-05-17
Launch site
JSC
Launch vehicle
Mass (kg)
RCS (m²)

External: N2YO · Heavens-Above · Gunter

§ Orbital elements

Epoch: 2026-05-25T04:29:19.262400Z

Period
94.79 min
Inclination
97.4118°
Eccentricity
0.0001593
Mean motion
15.19179728 rev/d
Perigee alt
507.2 km
Apogee alt
509.4 km
Semi-major
6,886.5 km
B*
6.3287e-5
RAAN
218.1740°
Arg perigee
89.6055°
Mean anomaly
270.5362°
Rev number
5,658

§ Raw data

TIANYI A1 64048U 25103A   26145.18702850  .00001264  00000+0  63287-4 0  99942 64048  97.4118 218.1740 0001593  89.6055 270.5362 15.19179728 56587

JSON: /api/v1/satellites/64048 · /tle

For live sub-satellite position, see the globe view (requires WebGL).

§ Visibility from observer

Set your observer location to see the next 7 days of passes ≥ 10°. The values pass through the URL so the page stays shareable.

No JS? Fill the form by hand. The geolocation button needs JavaScript.